Powrót do katalogu

FENGYUN 1C DEB

AktywnyPO
NORAD 37056·DEBRIS·🇨🇳 China

Wystrzelony May 10, 1999 z Taiyuan Satellite Launch Center

Loading…

Następne Przeloty (najbliższe 24 godziny)

TLE

ŚwieżeSource: Space-Track

Epoka: Sep 14, 2026, 09:45 UTC

1 37056U 99025EEQ 26257.40648795  .00001356  00000-0  22480-3 0  9995
2 37056  98.9535 303.1851 0265638  36.1163 325.7651 14.51459569694099

Śledź FENGYUN 1C DEB w czasie rzeczywistym z AllMySat

Download on the App Store